Location: Tierz
(42.1336°N, 0.3549°W)
Time: 23:38:59
(UTC+00:00)

USA 305 - Pass Details

Date: 29 October 2020
Orbit: 568 x 577 km, 54.0° (Epoch: 30 November)

Event Time Altitude Azimuth Distance (km) Brightness Sun altitude
Rises 19:28:18 0° 305° (NW) 2,784 7.3 -28.3°
Reaches altitude 10° 19:30:37 10° 301° (WNW) 1,881 6.3 -28.7°
Enters shadow 19:33:29 37° 276° (W) 897 4.3 -29.2°
